Watford City, ND

7:40 AM CST on January 18, 2017 (GMT -0600)
Watford City

Weather History for KS25 - April, 2013

Change the Weather History Date:

Monday, April 22, 2013

  Actual Average (KISN) Record (KISN)
Temperature  
Mean Temperature 26 °F -  
Max Temperature 33 °F 62 °F 89 °F (1989)
Min Temperature 19 °F 32 °F 12 °F (1909)
Degree Days  
Heating Degree Days 39    
Moisture  
Dew Point 16 °F    
Average Humidity 65    
Maximum Humidity 93    
Minimum Humidity 41    
Precipitation  
Precipitation 0.00 in - - ()
Sea Level Pressure  
Sea Level Pressure 30.35 in    
Wind  
Wind Speed 11 mph (NNW)    
Max Wind Speed 17 mph    
Max Gust Speed 22 mph    
Visibility 10 miles    
Events      
Averages and records for this station are not official NWS values.
T = Trace of Precipitation, MM = Missing Value Source: NWS Daily Summary

Daily Weather History Graph

Daily Weather History Graph

Search for Another Location

Airport or City:

Trip Planner

Search our weather history database for the weather conditions in past years. The results will help you decide how hot, cold, wet, or windy it might be!

Date:

Astronomy

Apr. 22, 2013 Rise Set
Actual Time 6:50 AM CDT 8:53 PM CDT
Civil Twilight 6:17 AM CDT 9:26 PM CDT
Nautical Twilight 5:35 AM CDT 10:08 PM CDT
Astronomical Twilight 4:50 AM CDT 10:54 PM CDT
Moon 5:32 PM CDT (4/22) 5:00 AM CDT (4/22)
Length of Visible Light 15h 09m
Length of Day
14h 03m
Waxing Gibbous, 88% of the Moon is Illuminated
Apr 22
Waxing Gibbous
Apr 25
Full
May 2
Last Quarter
May 9
New
May 17
First Quarter

Hourly Weather History & Observations

Time (CDT) Temp. Windchill Dew Point Humidity Pressure Visibility Wind Dir Wind Speed Gust Speed Precip Events Conditions
12:15 AM 28.4 °F 18.0 °F 19.4 °F 69% 30.24 in 10.0 mi North 12.7 mph - N/A   Overcast
12:35 AM 28.4 °F 17.5 °F 19.4 °F 69% 30.25 in 10.0 mi North 13.8 mph 18.4 mph N/A   Overcast
12:55 AM 26.6 °F 15.2 °F 19.4 °F 74% 30.26 in 10.0 mi NNW 13.8 mph 18.4 mph N/A   Overcast
1:15 AM 26.6 °F 15.2 °F 19.4 °F 74% 30.27 in 10.0 mi NNW 13.8 mph 19.6 mph N/A   Overcast
1:35 AM 26.6 °F 15.7 °F 19.4 °F 74% 30.26 in 10.0 mi North 12.7 mph - N/A   Overcast
1:55 AM 26.6 °F 15.2 °F 17.6 °F 69% 30.27 in 10.0 mi NW 13.8 mph 19.6 mph N/A   Overcast
2:15 AM 26.6 °F 15.2 °F 17.6 °F 69% 30.28 in 10.0 mi NNW 13.8 mph 18.4 mph N/A   Overcast
2:35 AM 26.6 °F 14.7 °F 17.6 °F 69% 30.28 in 10.0 mi North 15.0 mph - N/A   Overcast
2:55 AM 26.6 °F 18.2 °F 17.6 °F 69% 30.28 in 10.0 mi NNW 8.1 mph - N/A   Overcast
3:15 AM 26.6 °F 15.2 °F 19.4 °F 74% 30.28 in 10.0 mi North 13.8 mph - N/A   Overcast
3:35 AM 24.8 °F 11.9 °F 17.6 °F 74% 30.28 in 10.0 mi North 16.1 mph - N/A   Overcast
3:55 AM 23.0 °F 13.1 °F 15.8 °F 74% 30.29 in 10.0 mi NNW 9.2 mph - N/A   Scattered Clouds
4:15 AM 23.0 °F 14.7 °F 15.8 °F 74% 30.29 in 10.0 mi NNW 6.9 mph - N/A   Clear
4:35 AM 23.0 °F 11.7 °F 15.8 °F 74% 30.28 in 10.0 mi NNW 11.5 mph - N/A   Clear
4:55 AM 23.0 °F 13.9 °F 15.8 °F 74% 30.29 in 10.0 mi NNW 8.1 mph - N/A   Clear
5:15 AM 23.0 °F 14.7 °F 15.8 °F 74% 30.30 in 10.0 mi NW 6.9 mph - N/A   Scattered Clouds
5:35 AM 21.2 °F 11.7 °F 15.8 °F 80% 30.30 in 10.0 mi NNW 8.1 mph - N/A   Partly Cloudy
5:55 AM 21.2 °F 12.6 °F 15.8 °F 80% 30.30 in 10.0 mi NNW 6.9 mph - N/A   Clear
6:15 AM 19.4 °F 10.4 °F 15.8 °F 86% 30.31 in 10.0 mi NNW 6.9 mph - N/A   Clear
6:35 AM 19.4 °F 11.5 °F 15.8 °F 86% 30.31 in 10.0 mi NNW 5.8 mph - N/A   Clear
6:55 AM 19.4 °F 14.3 °F 15.8 °F 86% 30.32 in 10.0 mi NW 3.5 mph - N/A   Clear
7:15 AM 19.4 °F 14.3 °F 17.6 °F 93% 30.34 in 10.0 mi WNW 3.5 mph - N/A   Clear
7:35 AM 19.4 °F 14.3 °F 17.6 °F 93% 30.35 in 10.0 mi West 3.5 mph - N/A   Clear
7:55 AM 21.2 °F 16.4 °F 17.6 °F 86% 30.36 in 10.0 mi WNW 3.5 mph - N/A   Clear
8:15 AM 23.0 °F 14.7 °F 17.6 °F 80% 30.36 in 10.0 mi WNW 6.9 mph - N/A   Clear
8:35 AM 23.0 °F 14.7 °F 17.6 °F 80% 30.37 in 10.0 mi NW 6.9 mph - N/A   Clear
8:55 AM 24.8 °F 14.6 °F 17.6 °F 74% 30.37 in 10.0 mi North 10.4 mph - N/A   Partly Cloudy
9:15 AM 24.8 °F 14.0 °F 17.6 °F 74% 30.38 in 10.0 mi North 11.5 mph - N/A   Clear
9:35 AM 26.6 °F 16.8 °F 15.8 °F 64% 30.38 in 10.0 mi North 10.4 mph 17.3 mph N/A   Partly Cloudy
9:55 AM 24.8 °F 14.0 °F 15.8 °F 69% 30.39 in 10.0 mi North 11.5 mph 16.1 mph N/A   Scattered Clouds
10:15 AM 26.6 °F 17.5 °F 14.0 °F 59% 30.39 in 10.0 mi North 9.2 mph - N/A   Mostly Cloudy
10:35 AM 26.6 °F 15.7 °F 14.0 °F 59% 30.39 in 10.0 mi North 12.7 mph - N/A   Mostly Cloudy
10:55 AM 26.6 °F 18.2 °F 12.2 °F 55% 30.40 in 10.0 mi North 8.1 mph - N/A   Mostly Cloudy
11:15 AM 28.4 °F 17.5 °F 14.0 °F 55% 30.40 in 10.0 mi NNE 13.8 mph 17.3 mph N/A   Mostly Cloudy
11:35 AM 28.4 °F 18.0 °F 14.0 °F 55% 30.40 in 10.0 mi North 12.7 mph 17.3 mph N/A   Overcast
11:55 AM 28.4 °F 19.7 °F 12.2 °F 51% 30.40 in 10.0 mi NNW 9.2 mph - N/A   Mostly Cloudy
12:15 PM 28.4 °F 19.1 °F 14.0 °F 55% 30.41 in 10.0 mi NNW 10.4 mph - N/A   Mostly Cloudy
12:35 PM 28.4 °F 19.1 °F 14.0 °F 55% 30.40 in 10.0 mi NW 10.4 mph - N/A   Mostly Cloudy
12:55 PM 30.2 °F 21.3 °F 14.0 °F 51% 30.40 in 10.0 mi NNW 10.4 mph - N/A   Mostly Cloudy
1:15 PM 30.2 °F 21.3 °F 14.0 °F 51% 30.40 in 10.0 mi NNW 10.4 mph 19.6 mph N/A   Scattered Clouds
1:35 PM 30.2 °F 20.8 °F 14.0 °F 51% 30.40 in 10.0 mi NNW 11.5 mph - N/A   Mostly Cloudy
1:55 PM 30.2 °F 20.2 °F 14.0 °F 51% 30.39 in 10.0 mi NW 12.7 mph 20.7 mph N/A   Mostly Cloudy
2:15 PM 32.0 °F 21.2 °F 14.0 °F 48% 30.39 in 10.0 mi NW 16.1 mph 19.6 mph N/A   Mostly Cloudy
2:35 PM 32.0 °F 23.0 °F 12.2 °F 44% 30.39 in 10.0 mi NNW 11.5 mph 19.6 mph N/A   Scattered Clouds
2:55 PM 32.0 °F 24.2 °F 14.0 °F 48% 30.39 in 10.0 mi NW 9.2 mph - N/A   Scattered Clouds
3:15 PM 32.0 °F 21.2 °F 14.0 °F 48% 30.38 in 10.0 mi NNW 16.1 mph 19.6 mph N/A   Mostly Cloudy
3:35 PM 32.0 °F 21.6 °F 14.0 °F 48% 30.38 in 10.0 mi NW 15.0 mph 20.7 mph N/A   Scattered Clouds
3:55 PM 32.0 °F 21.6 °F 14.0 °F 48% 30.38 in 10.0 mi NNW 15.0 mph 21.9 mph N/A   Mostly Cloudy
4:15 PM 32.0 °F 22.1 °F 14.0 °F 48% 30.38 in 10.0 mi North 13.8 mph 20.7 mph N/A   Mostly Cloudy
4:35 PM 32.0 °F 20.8 °F 14.0 °F 48% 30.37 in 10.0 mi NNW 17.3 mph 21.9 mph N/A   Mostly Cloudy
4:55 PM 33.8 °F 24.8 °F 14.0 °F 44% 30.37 in 10.0 mi North 12.7 mph 17.3 mph N/A   Mostly Cloudy
5:15 PM 33.8 °F 23.9 °F 12.2 °F 41% 30.37 in 10.0 mi NW 15.0 mph 19.6 mph N/A   Mostly Cloudy
5:35 PM 32.0 °F 22.1 °F 14.0 °F 48% 30.37 in 10.0 mi NNW 13.8 mph 17.3 mph N/A   Mostly Cloudy
5:55 PM 33.8 °F 24.8 °F 12.2 °F 41% 30.36 in 10.0 mi NNW 12.7 mph 20.7 mph N/A   Mostly Cloudy
6:15 PM 32.0 °F 22.1 °F 14.0 °F 48% 30.36 in 10.0 mi NNW 13.8 mph 17.3 mph N/A   Mostly Cloudy
6:35 PM 32.0 °F 22.5 °F 14.0 °F 48% 30.36 in 10.0 mi NNW 12.7 mph 16.1 mph N/A   Overcast
6:55 PM 32.0 °F 23.6 °F 15.8 °F 51% 30.36 in 10.0 mi North 10.4 mph 16.1 mph N/A   Overcast
7:15 PM 33.8 °F 26.4 °F 14.0 °F 44% 30.36 in 10.0 mi WNW 9.2 mph - N/A   Overcast
7:35 PM 32.0 °F 22.1 °F 14.0 °F 48% 30.35 in 10.0 mi NNW 13.8 mph - N/A   Mostly Cloudy
7:55 PM 32.0 °F 24.2 °F 14.0 °F 48% 30.35 in 10.0 mi NNW 9.2 mph - N/A   Mostly Cloudy
8:15 PM 32.0 °F 24.8 °F 15.8 °F 51% 30.35 in 10.0 mi NNW 8.1 mph - N/A   Mostly Cloudy
8:35 PM 30.2 °F 25.4 °F 15.8 °F 55% 30.35 in 10.0 mi North 4.6 mph - N/A   Partly Cloudy
8:55 PM 28.4 °F - 15.8 °F 59% 30.35 in 10.0 mi Calm Calm - N/A   Scattered Clouds
9:15 PM 26.6 °F - 15.8 °F 64% 30.35 in 10.0 mi Calm Calm - N/A   Partly Cloudy
9:35 PM 26.6 °F - 17.6 °F 69% 30.36 in 10.0 mi Calm Calm - N/A   Clear
9:55 PM 24.8 °F 19.1 °F 19.4 °F 80% 30.36 in 10.0 mi South 4.6 mph - N/A   Clear
10:15 PM 24.8 °F 20.5 °F 19.4 °F 80% 30.36 in 10.0 mi South 3.5 mph - N/A   Clear
10:35 PM 24.8 °F - 19.4 °F 80% 30.35 in 10.0 mi Calm Calm - N/A   Clear
10:55 PM 23.0 °F - 19.4 °F 86% 30.35 in 10.0 mi Calm Calm - N/A   Clear
11:15 PM 23.0 °F 18.4 °F 19.4 °F 86% 30.35 in 10.0 mi SW 3.5 mph - N/A   Clear
11:35 PM 23.0 °F 17.0 °F 17.6 °F 80% 30.34 in 10.0 mi WSW 4.6 mph - N/A   Clear
11:55 PM 21.2 °F 14.9 °F 17.6 °F 86% 30.34 in 10.0 mi WSW 4.6 mph - N/A   Clear